Language: 


Des rapports , des résumés tant et plus, au choix de chacun....


Données statistiques de la station
Quotidien Rapport Aout 21, 2017 Unités:  Anglais    Métrique   les deux
« Précédent Jour
Suivant Jour »
Quotidien Hebdomadaire Mensuel Annuel Actuel
  Haut: Bas: Moyen:
Température: 69.4 °F 32 °F 62.6 °F
Pt de rosée: 62.6 °F 53.6 °F 59.4 °F
Humidité: 98 % 0 % 88 %
Vitesse du vent: 9.4 mph 0 mph 1.2 mph
Rafales: 12.3 mph - -
Vent:- - SSE
Pression: 30.2 in 30.1 in -
Précipitation: 0.07 in    
Historical Graphs
 
 
Données statistiques pour Aout 21, 2017
Heure Température Point de rosée Pression Vent Vitesse du vent Refales Humidité Pluie (taux horaire)
00:04 58.6 °F 53.6 °F 30.2 in Calm     82 % 0 in
00:09 58.8 °F 53.6 °F 30.2 in Calm     82 % 0 in
00:14 58.8 °F 53.6 °F 30.2 in Calm     82 % 0 in
00:19 58.8 °F 53.6 °F 30.2 in Calm     82 % 0 in
00:24 58.8 °F 53.6 °F 30.2 in Calm     82 % 0 in
00:29 58.8 °F 53.6 °F 30.2 in Calm     82 % 0 in
00:34 58.8 °F 53.6 °F 30.2 in Calm     82 % 0 in
00:40 58.8 °F 53.6 °F 30.2 in Calm     83 % 0 in
00:45 58.8 °F 55.4 °F 30.2 in Calm     84 % 0 in
00:50 58.6 °F 53.6 °F 30.2 in Calm     84 % 0 in
00:55 58.5 °F 53.6 °F 30.2 in Calm     84 % 0 in
01:00 58.5 °F 53.6 °F 30.2 in Calm     84 % 0 in
01:05 58.5 °F 53.6 °F 30.2 in Calm     84 % 0 in
01:10 58.5 °F 55.4 °F 30.2 in Calm     85 % 0 in
01:15 58.5 °F 55.4 °F 30.2 in Calm     85 % 0 in
01:20 58.5 °F 55.4 °F 30.2 in Calm     85 % 0 in
01:21 58.5 °F 55.4 °F 30.2 in Calm     86 % 0 in
01:26 58.3 °F 55.4 °F 30.2 in Calm     86 % 0 in
01:31 58.3 °F 55.4 °F 30.2 in Calm     87 % 0 in
01:36 58.3 °F 55.4 °F 30.2 in Calm     87 % 0 in
01:41 58.3 °F 55.4 °F 30.2 in Calm     87 % 0 in
01:46 58.3 °F 55.4 °F 30.2 in Calm     87 % 0 in
01:51 58.3 °F 55.4 °F 30.2 in Calm     88 % 0 in
01:56 58.3 °F 55.4 °F 30.2 in Calm     88 % 0 in
02:01 58.3 °F 55.4 °F 30.2 in Calm     88 % 0 in
02:06 58.1 °F 55.4 °F 30.2 in Calm     89 % 0 in
02:11 58.1 °F 55.4 °F 30.2 in Calm     89 % 0 in
02:16 58.1 °F 55.4 °F 30.2 in Calm     89 % 0 in
02:21 58.1 °F 55.4 °F 30.2 in Calm     90 % 0 in
02:26 57.9 °F 55.4 °F 30.2 in Calm     90 % 0 in
02:31 57.9 °F 55.4 °F 30.2 in Calm     91 % 0 in
02:36 57.9 °F 55.4 °F 30.2 in Calm     91 % 0 in
02:41 57.9 °F 55.4 °F 30.2 in Calm     91 % 0 in
02:46 57.9 °F 55.4 °F 30.2 in Calm     91 % 0 in
02:51 57.9 °F 55.4 °F 30.2 in Calm     92 % 0 in
02:56 57.9 °F 55.4 °F 30.2 in Calm     92 % 0 in
03:02 32 °F 55.4 °F 30.2 in Calm     0 % 0 in
03:07 57.9 °F 55.4 °F 30.2 in Calm     92 % 0 in
03:12 57.9 °F 55.4 °F 30.2 in Calm     92 % 0 in
03:17 57.7 °F 55.4 °F 30.2 in Calm     93 % 0 in
03:22 57.7 °F 55.4 °F 30.2 in Calm     93 % 0 in
03:27 57.7 °F 55.4 °F 30.2 in Calm     93 % 0 in
03:32 57.7 °F 55.4 °F 30.2 in Calm     93 % 0 in
03:37 57.7 °F 55.4 °F 30.2 in Calm     93 % 0 in
03:42 57.7 °F 55.4 °F 30.2 in Calm     94 % 0 in
03:47 57.7 °F 55.4 °F 30.2 in Calm     94 % 0.01 in
03:52 57.7 °F 55.4 °F 30.2 in Calm     94 % 0.01 in
03:57 57.7 °F 55.4 °F 30.2 in Calm   0.9 mph 94 % 0.01 in
04:02 57.7 °F 55.4 °F 30.2 in SW 2 mph 2.7 mph 94 % 0.01 in
04:07 57.6 °F 55.4 °F 30.2 in Calm   2.9 mph 94 % 0.02 in
04:12 57.6 °F 55.4 °F 30.2 in Calm   2.9 mph 94 % 0.02 in
04:17 57.6 °F 57.2 °F 30.2 in Calm   2.9 mph 95 % 0.02 in
04:22 57.4 °F 55.4 °F 30.2 in Calm   2.9 mph 95 % 0.02 in
04:27 57.4 °F 55.4 °F 30.2 in WSW 2.9 mph 2.9 mph 95 % 0.04 in
04:32 57.4 °F 55.4 °F 30.2 in Calm   2.9 mph 95 % 0.05 in
04:37 57.4 °F 55.4 °F 30.2 in Calm     95 % 0.05 in
04:42 57.4 °F 55.4 °F 30.2 in Calm     95 % 0.05 in
04:47 57.4 °F 55.4 °F 30.2 in Calm     95 % 0.04 in
04:52 57.4 °F 57.2 °F 30.2 in Calm     96 % 0.04 in
04:57 57.4 °F 57.2 °F 30.2 in Calm     96 % 0.04 in
05:02 57.4 °F 57.2 °F 30.2 in Calm     96 % 0.05 in
05:07 57.4 °F 57.2 °F 30.2 in Calm     96 % 0.04 in
05:12 57.4 °F 57.2 °F 30.2 in Calm     96 % 0.04 in
05:17 57.4 °F 57.2 °F 30.2 in Calm     96 % 0.04 in
05:22 57.2 °F 57.2 °F 30.2 in Calm     96 % 0.04 in
05:27 57.2 °F 57.2 °F 30.2 in Calm     96 % 0.02 in
05:32 57.2 °F 57.2 °F 30.2 in Calm     96 % 0.01 in
05:37 57.2 °F 57.2 °F 30.2 in Calm     96 % 0.02 in
05:42 57.2 °F 57.2 °F 30.2 in Calm     96 % 0.02 in
05:47 57.2 °F 57.2 °F 30.2 in Calm     97 % 0.02 in
05:52 57.2 °F 57.2 °F 30.2 in Calm     97 % 0.02 in
05:57 57.2 °F 57.2 °F 30.2 in Calm     97 % 0.02 in
06:01 57.2 °F 57.2 °F 30.2 in Calm     97 % 0.01 in
06:06 57.2 °F 57.2 °F 30.2 in Calm     97 % 0.01 in
06:11 57.2 °F 57.2 °F 30.2 in Calm     97 % 0.01 in
06:16 57.2 °F 57.2 °F 30.2 in Calm     97 % 0.01 in
06:21 57.2 °F 57.2 °F 30.2 in Calm     97 % 0.01 in
06:27 57.2 °F 57.2 °F 30.2 in Calm     97 % 0.01 in
06:32 57.2 °F 57.2 °F 30.2 in Calm     97 % 0.01 in
06:37 57.2 °F 57.2 °F 30.2 in Calm   0.9 mph 97 % 0 in
06:42 57.2 °F 57.2 °F 30.2 in Calm   2.7 mph 97 % 0 in
06:47 57.2 °F 57.2 °F 30.2 in Calm   2.7 mph 97 % 0 in
06:52 57.2 °F 57.2 °F 30.2 in Calm   2.2 mph 97 % 0 in
06:57 57.2 °F 57.2 °F 30.2 in ESE 3.4 mph 3.4 mph 97 % 0 in
07:02 57.2 °F 57.2 °F 30.2 in ESE 2.9 mph 3.6 mph 97 % 0 in
07:07 57.2 °F 57.2 °F 30.2 in Calm   3.6 mph 97 % 0 in
07:12 57.4 °F 57.2 °F 30.2 in Calm   2.9 mph 97 % 0 in
07:17 57.4 °F 57.2 °F 30.2 in Calm   3.4 mph 97 % 0 in
07:22 57.6 °F 57.2 °F 30.2 in Calm   3.4 mph 98 % 0 in
07:27 57.6 °F 57.2 °F 30.2 in Calm   2.5 mph 98 % 0 in
07:33 57.7 °F 57.2 °F 30.2 in Calm   2.5 mph 98 % 0 in
07:38 57.7 °F 57.2 °F 30.2 in Calm   0.9 mph 98 % 0 in
07:43 57.7 °F 57.2 °F 30.2 in Calm   0.9 mph 98 % 0 in
07:48 57.9 °F 57.2 °F 30.2 in Calm     98 % 0 in
07:53 57.9 °F 57.2 °F 30.2 in Calm   2.7 mph 98 % 0 in
07:58 58.1 °F 59 °F 30.2 in Calm   2.7 mph 98 % 0 in
08:03 58.1 °F 59 °F 30.2 in Calm   2.2 mph 98 % 0 in
08:08 58.1 °F 59 °F 30.2 in Calm   1.3 mph 98 % 0 in
08:13 58.3 °F 59 °F 30.2 in Calm     98 % 0 in
08:18 58.3 °F 59 °F 30.2 in Calm     98 % 0 in
08:23 58.3 °F 59 °F 30.2 in Calm     98 % 0 in
08:28 58.3 °F 59 °F 30.2 in Calm     98 % 0 in
08:33 58.3 °F 59 °F 30.2 in Calm   1.1 mph 98 % 0 in
08:38 58.5 °F 59 °F 30.2 in Calm   2.2 mph 98 % 0 in
08:43 58.5 °F 59 °F 30.2 in Calm   2.2 mph 98 % 0 in
08:48 58.5 °F 59 °F 30.2 in Calm   1.6 mph 98 % 0 in
08:53 58.6 °F 59 °F 30.2 in Calm   3.6 mph 98 % 0 in
08:58 58.6 °F 59 °F 30.2 in East 3.6 mph 3.6 mph 98 % 0 in
09:03 58.6 °F 59 °F 30.2 in ESE 4.3 mph 4.3 mph 98 % 0 in
09:04 58.6 °F 59 °F 30.2 in East 1.1 mph 4.3 mph 98 % 0 in
09:09 58.8 °F 59 °F 30.2 in ESE 4.3 mph 4.3 mph 98 % 0 in
09:14 58.8 °F 59 °F 30.2 in Calm   4.9 mph 98 % 0 in
09:19 58.8 °F 59 °F 30.2 in ESE 1.3 mph 4.9 mph 98 % 0 in
09:24 59 °F 59 °F 30.2 in Calm   3.4 mph 97 % 0 in
09:29 59.2 °F 59 °F 30.2 in Calm   3.4 mph 98 % 0 in
09:34 59.4 °F 59 °F 30.2 in Calm   3.8 mph 98 % 0 in
09:39 59.7 °F 59 °F 30.2 in ESE 4.3 mph 5.6 mph 98 % 0 in
09:44 59.9 °F 60.8 °F 30.2 in SSE 1.6 mph 5.6 mph 98 % 0 in
09:49 60.1 °F 59 °F 30.2 in ESE 5.6 mph 5.6 mph 97 % 0 in
09:54 60.1 °F 59 °F 30.2 in Calm   5.6 mph 97 % 0 in
09:59 60.3 °F 59 °F 30.2 in Calm   5.6 mph 97 % 0 in
10:05 60.3 °F 59 °F 30.2 in Calm   5.4 mph 97 % 0 in
10:10 60.4 °F 59 °F 30.2 in Calm   5.4 mph 97 % 0 in
10:15 60.6 °F 60.8 °F 30.2 in ESE 2 mph 5.4 mph 97 % 0 in
10:20 61 °F 60.8 °F 30.2 in ESE 3.8 mph 4.3 mph 96 % 0 in
10:25 61.3 °F 60.8 °F 30.2 in ESE 5.4 mph 6.5 mph 96 % 0 in
10:30 61.3 °F 60.8 °F 30.2 in South 3.4 mph 6.5 mph 96 % 0 in
10:35 62.6 °F 62.6 °F 30.2 in SSE 2.7 mph 6.5 mph 96 % 0 in
10:37 62.6 °F 62.6 °F 30.2 in Calm   6.3 mph 96 % 0 in
10:42 63.7 °F 62.6 °F 30.2 in South 4.3 mph 5.8 mph 96 % 0 in
10:47 64.4 °F 62.6 °F 30.2 in SE 3.6 mph 6.5 mph 94 % 0 in
10:52 64.8 °F 62.6 °F 30.2 in SE 6.5 mph 6.5 mph 93 % 0 in
10:57 64.8 °F 62.6 °F 30.2 in Calm   6.5 mph 92 % 0 in
11:02 65.1 °F 62.6 °F 30.2 in SE 3.6 mph 5.8 mph 91 % 0 in
11:07 65.3 °F 62.6 °F 30.2 in SSE 4.3 mph 4.3 mph 91 % 0 in
11:12 65.7 °F 62.6 °F 30.2 in Calm   6 mph 89 % 0 in
11:17 65.8 °F 62.6 °F 30.2 in SSW 2.9 mph 6 mph 88 % 0 in
11:22 65.5 °F 60.8 °F 30.2 in SE 5.6 mph 7.6 mph 86 % 0 in
11:27 65.5 °F 60.8 °F 30.2 in SSE 4.3 mph 7.6 mph 84 % 0 in
11:32 65.3 °F 59 °F 30.2 in SSE 9.4 mph 9.4 mph 81 % 0 in
11:37 65.3 °F 60.8 °F 30.2 in SSE 0.9 mph 9.4 mph 82 % 0 in
11:42 65.5 °F 60.8 °F 30.2 in SSE 5.8 mph 8.7 mph 82 % 0 in
11:47 65.8 °F 60.8 °F 30.2 in SE 3.6 mph 7.6 mph 82 % 0 in
11:52 66.2 °F 60.8 °F 30.2 in Calm   4.9 mph 82 % 0 in
11:57 66.6 °F 60.8 °F 30.2 in SE 7.8 mph 7.8 mph 81 % 0 in
12:02 66.7 °F 60.8 °F 30.2 in Calm   7.8 mph 80 % 0 in
12:07 67.1 °F 60.8 °F 30.2 in SE 3.1 mph 6.5 mph 80 % 0 in
12:12 67.3 °F 60.8 °F 30.2 in SSE 7.8 mph 7.8 mph 79 % 0 in
12:17 67.1 °F 60.8 °F 30.2 in SSE 8.7 mph 12.3 mph 77 % 0 in
12:22 67.5 °F 60.8 °F 30.2 in South 5.4 mph 12.3 mph 79 % 0 in
12:27 67.1 °F 60.8 °F 30.2 in South 3.8 mph 8.7 mph 77 % 0 in
12:32 67.1 °F 60.8 °F 30.2 in SSE 4.9 mph 7.8 mph 78 % 0 in
12:37 67.1 °F 60.8 °F 30.2 in SE 5.8 mph 7.4 mph 78 % 0 in
12:42 67.1 °F 60.8 °F 30.2 in Calm   9.8 mph 78 % 0 in
12:47 67.3 °F 60.8 °F 30.2 in SE 4 mph 9.8 mph 78 % 0 in
12:52 67.5 °F 59 °F 30.2 in SE 5.6 mph 8.1 mph 76 % 0 in
12:57 67.5 °F 59 °F 30.2 in SSE 5.6 mph 8.9 mph 76 % 0 in
13:02 67.8 °F 60.8 °F 30.2 in SSE 7.6 mph 8.9 mph 77 % 0 in
13:07 68 °F 60.8 °F 30.2 in SE 1.3 mph 10.1 mph 75 % 0 in
13:12 67.8 °F 60.8 °F 30.2 in SSE 2.9 mph 10.1 mph 76 % 0 in
13:17 68 °F 60.8 °F 30.2 in Calm   8.5 mph 76 % 0 in
13:22 67.6 °F 59 °F 30.2 in SSW 4.9 mph 10.3 mph 75 % 0 in
13:27 67.8 °F 60.8 °F 30.2 in South 5.8 mph 10.3 mph 76 % 0 in
13:32 68.2 °F 60.8 °F 30.2 in South 3.1 mph 10.1 mph 76 % 0 in
13:41 68.7 °F 60.8 °F 30.2 in South 4.3 mph 8.1 mph 76 % 0 in
13:46 68.9 °F 62.6 °F 30.2 in SE 3.6 mph 8.1 mph 77 % 0 in
13:51 68.7 °F 60.8 °F 30.2 in Calm   6.5 mph 76 % 0 in
13:56 68.9 °F 62.6 °F 30.2 in SE 6.3 mph 6.9 mph 77 % 0 in
14:01 68.2 °F 60.8 °F 30.2 in ESE 2.2 mph 7.8 mph 75 % 0 in
14:06 68.2 °F 60.8 °F 30.2 in SSW 4.3 mph 9.8 mph 77 % 0 in
14:11 68.5 °F 60.8 °F 30.2 in SSE 5.8 mph 9.8 mph 76 % 0 in
14:16 69.3 °F 62.6 °F 30.2 in SE 4.3 mph 8.7 mph 78 % 0 in
14:21 69.4 °F 62.6 °F 30.2 in Calm   7.8 mph 77 % 0 in
14:26 68.9 °F 60.8 °F 30.2 in Calm   7.8 mph 76 % 0 in
14:31 68.7 °F 60.8 °F 30.2 in South 2.9 mph 7.4 mph 77 % 0 in
14:36 68.7 °F 60.8 °F 30.2 in South 4.9 mph 6.5 mph 77 % 0 in
14:41 68.4 °F 60.8 °F 30.2 in ESE 3.1 mph 7.8 mph 77 % 0 in
14:46 68.4 °F 60.8 °F 30.2 in South 3.6 mph 7.8 mph 78 % 0 in
14:51 68.4 °F 60.8 °F 30.2 in SSE 4 mph 4.9 mph 78 % 0 in
14:56 68.4 °F 60.8 °F 30.2 in South 4.9 mph 8.5 mph 78 % 0 in
15:01 67.8 °F 60.8 °F 30.2 in SSE 7.4 mph 8.5 mph 77 % 0 in
15:06 67.6 °F 60.8 °F 30.2 in SSE 5.6 mph 7.8 mph 78 % 0 in
15:11 67.6 °F 60.8 °F 30.2 in Calm   6 mph 78 % 0 in
15:16 67.6 °F 60.8 °F 30.2 in SSE 1.1 mph 5.8 mph 78 % 0 in
15:21 67.6 °F 60.8 °F 30.2 in SSE 3.4 mph 7.8 mph 79 % 0 in
15:27 67.5 °F 60.8 °F 30.2 in South 3.6 mph 7.8 mph 79 % 0 in
15:32 67.3 °F 60.8 °F 30.2 in SE 2 mph 6.9 mph 80 % 0 in
15:37 67.5 °F 60.8 °F 30.2 in Calm   6.9 mph 80 % 0 in
15:42 67.5 °F 60.8 °F 30.2 in Calm   5.6 mph 80 % 0 in
15:47 67.1 °F 60.8 °F 30.2 in Calm   6.5 mph 80 % 0 in
15:52 66.9 °F 60.8 °F 30.2 in Calm   6.5 mph 80 % 0 in
15:57 67.3 °F 60.8 °F 30.2 in Calm   5.4 mph 81 % 0 in
16:02 67.8 °F 62.6 °F 30.2 in SSW 4.7 mph 6.5 mph 81 % 0 in
16:07 68.7 °F 62.6 °F 30.2 in South 3.1 mph 6.5 mph 80 % 0 in
16:12 68.4 °F 62.6 °F 30.2 in SSE 5.4 mph 6.3 mph 79 % 0 in
16:17 67.6 °F 60.8 °F 30.2 in SSE 6.3 mph 6.9 mph 80 % 0 in
16:22 67.6 °F 60.8 °F 30.2 in Calm   7.4 mph 80 % 0 in
16:27 68 °F 62.6 °F 30.2 in SSE 4.7 mph 7.4 mph 80 % 0 in
16:32 67.8 °F 62.6 °F 30.2 in SSW 4.9 mph 8.5 mph 80 % 0 in
16:37 67.8 °F 62.6 °F 30.2 in Calm   8.5 mph 81 % 0 in
16:43 68.7 °F 62.6 °F 30.2 in Calm   7.8 mph 81 % 0 in
16:48 68.9 °F 62.6 °F 30.2 in SSE 4.7 mph 7.8 mph 81 % 0 in
16:53 68.5 °F 62.6 °F 30.2 in Calm   7.2 mph 80 % 0 in
16:58 67.6 °F 60.8 °F 30.2 in Calm   7.2 mph 80 % 0 in
17:03 67.1 °F 60.8 °F 30.2 in SSE 0.9 mph 7.2 mph 80 % 0 in
17:08 66.9 °F 60.8 °F 30.2 in Calm   6.3 mph 80 % 0 in
17:13 66.6 °F 60.8 °F 30.2 in South 0.9 mph 7.2 mph 82 % 0 in
17:18 66.7 °F 60.8 °F 30.2 in South 0.9 mph 8.1 mph 82 % 0 in
17:23 66.7 °F 60.8 °F 30.2 in South 2.2 mph 8.1 mph 82 % 0 in
17:28 66.7 °F 60.8 °F 30.2 in Calm   7.4 mph 82 % 0 in
17:33 66.7 °F 60.8 °F 30.2 in South 4.9 mph 7.4 mph 82 % 0 in
17:38 67.1 °F 62.6 °F 30.2 in Calm   6 mph 83 % 0 in
17:43 67.6 °F 62.6 °F 30.2 in South 3.1 mph 5.4 mph 83 % 0 in
17:45 67.5 °F 62.6 °F 30.2 in South 2.9 mph 5.4 mph 83 % 0 in
17:50 67.5 °F 62.6 °F 30.1 in SSE 4.9 mph 5.4 mph 82 % 0 in
17:55 67.1 °F 62.6 °F 30.1 in SSW 4.7 mph 5.4 mph 82 % 0 in
18:00 67.1 °F 62.6 °F 30.1 in ESE 4.3 mph 5.8 mph 83 % 0 in
18:05 67.1 °F 62.6 °F 30.1 in SSW 1.3 mph 5.8 mph 83 % 0 in
18:10 67.3 °F 62.6 °F 30.1 in Calm   4.5 mph 84 % 0 in
18:11 67.5 °F 62.6 °F 30.1 in Calm   4.5 mph 85 % 0 in
18:16 67.5 °F 62.6 °F 30.2 in Calm   4.9 mph 84 % 0 in
18:21 67.3 °F 62.6 °F 30.2 in SE 3.1 mph 5.4 mph 83 % 0 in
18:26 66.9 °F 60.8 °F 30.2 in Calm   5.4 mph 83 % 0 in
18:31 66.9 °F 60.8 °F 30.2 in Calm   4.3 mph 83 % 0 in
18:36 66.7 °F 60.8 °F 30.2 in Calm   5.4 mph 83 % 0 in
18:41 66.4 °F 60.8 °F 30.2 in Calm   5.4 mph 83 % 0 in
18:46 66.2 °F 60.8 °F 30.2 in Calm   5.4 mph 84 % 0 in
18:51 66 °F 60.8 °F 30.2 in Calm   5.4 mph 84 % 0 in
18:56 65.7 °F 60.8 °F 30.2 in SSE 1.1 mph 4.9 mph 85 % 0 in
19:01 65.5 °F 60.8 °F 30.2 in Calm   4.5 mph 85 % 0 in
19:06 65.5 °F 60.8 °F 30.2 in Calm   4 mph 86 % 0 in
19:11 65.5 °F 60.8 °F 30.2 in Calm   4 mph 86 % 0 in
19:16 65.7 °F 60.8 °F 30.2 in Calm   4 mph 86 % 0 in
19:21 65.7 °F 60.8 °F 30.2 in Calm   0.9 mph 86 % 0 in
19:26 65.5 °F 60.8 °F 30.2 in Calm   2.2 mph 86 % 0 in
19:31 65.5 °F 62.6 °F 30.2 in Calm   2.2 mph 87 % 0 in
19:36 65.5 °F 62.6 °F 30.2 in Calm     87 % 0 in
19:41 65.5 °F 62.6 °F 30.2 in Calm   4.9 mph 87 % 0 in
19:46 65.5 °F 62.6 °F 30.2 in Calm   4.9 mph 87 % 0 in
19:51 65.3 °F 62.6 °F 30.2 in Calm   1.1 mph 87 % 0 in
19:56 65.3 °F 62.6 °F 30.2 in Calm   1.1 mph 87 % 0 in
20:01 65.1 °F 60.8 °F 30.2 in Calm   0.9 mph 87 % 0 in
20:05 65.1 °F 60.8 °F 30.2 in Calm   0.9 mph 87 % 0 in
20:10 65.1 °F 60.8 °F 30.2 in Calm     87 % 0 in
20:15 64.9 °F 60.8 °F 30.2 in Calm   0.9 mph 87 % 0 in
20:20 64.9 °F 60.8 °F 30.2 in Calm   3.1 mph 87 % 0 in
20:25 64.8 °F 60.8 °F 30.2 in Calm   3.1 mph 88 % 0 in
20:30 64.8 °F 60.8 °F 30.2 in Calm   0.9 mph 88 % 0 in
20:35 64.8 °F 60.8 °F 30.2 in Calm     88 % 0 in
20:40 64.8 °F 60.8 °F 30.2 in Calm     88 % 0 in
20:45 64.6 °F 60.8 °F 30.2 in Calm     89 % 0 in
20:49 64.6 °F 60.8 °F 30.2 in Calm     89 % 0 in
20:55 64.4 °F 60.8 °F 30.2 in Calm     89 % 0 in
21:00 64.4 °F 60.8 °F 30.2 in Calm   1.1 mph 89 % 0 in
21:05 64.4 °F 60.8 °F 30.2 in Calm   1.1 mph 89 % 0 in
21:10 64.2 °F 60.8 °F 30.2 in Calm   1.1 mph 90 % 0 in
21:15 64.2 °F 60.8 °F 30.2 in Calm   1.1 mph 90 % 0 in
21:20 64.2 °F 60.8 °F 30.2 in Calm     90 % 0 in
21:25 64.2 °F 60.8 °F 30.2 in Calm     90 % 0 in
21:30 64.2 °F 60.8 °F 30.1 in Calm     90 % 0 in
21:35 64 °F 60.8 °F 30.1 in Calm     90 % 0 in
21:40 64 °F 60.8 °F 30.1 in Calm     90 % 0 in
21:45 64 °F 60.8 °F 30.2 in Calm     91 % 0 in
21:50 64 °F 60.8 °F 30.2 in Calm     91 % 0 in
21:55 63.9 °F 60.8 °F 30.2 in Calm     91 % 0 in
22:00 63.9 °F 60.8 °F 30.2 in Calm     91 % 0 in
22:05 63.9 °F 60.8 °F 30.2 in Calm     91 % 0 in
22:06 63.9 °F 60.8 °F 30.2 in Calm     91 % 0 in
22:11 63.9 °F 60.8 °F 30.2 in Calm     91 % 0 in
22:16 63.9 °F 60.8 °F 30.2 in Calm     91 % 0 in
22:21 63.9 °F 60.8 °F 30.2 in Calm     92 % 0 in
22:26 63.9 °F 60.8 °F 30.2 in Calm     92 % 0 in
22:31 63.9 °F 60.8 °F 30.2 in Calm     92 % 0 in
22:36 63.9 °F 60.8 °F 30.2 in Calm     92 % 0 in
22:41 63.7 °F 60.8 °F 30.2 in Calm     92 % 0 in
22:46 63.7 °F 60.8 °F 30.2 in Calm   3.1 mph 92 % 0 in
22:51 63.7 °F 60.8 °F 30.2 in Calm   3.1 mph 92 % 0 in
22:56 63.7 °F 60.8 °F 30.2 in Calm     92 % 0 in
23:01 63.7 °F 60.8 °F 30.2 in Calm   3.8 mph 92 % 0 in
23:06 63.7 °F 60.8 °F 30.2 in Calm   3.8 mph 92 % 0 in
23:11 63.7 °F 60.8 °F 30.2 in SE 1.6 mph 2 mph 92 % 0 in
23:16 63.7 °F 60.8 °F 30.2 in Calm   3.8 mph 92 % 0 in
23:21 63.7 °F 60.8 °F 30.2 in Calm   3.8 mph 92 % 0 in
23:26 63.7 °F 60.8 °F 30.2 in Calm   2.5 mph 92 % 0 in
23:31 63.5 °F 60.8 °F 30.1 in Calm   4.3 mph 92 % 0 in
23:36 63.5 °F 62.6 °F 30.1 in Calm   4.3 mph 93 % 0 in
23:41 63.5 °F 62.6 °F 30.1 in Calm   1.3 mph 93 % 0 in
23:46 63.5 °F 62.6 °F 30.2 in Calm   2.2 mph 93 % 0 in
23:51 63.5 °F 62.6 °F 30.2 in Calm   2.2 mph 93 % 0 in
23:56 63.5 °F 62.6 °F 30.2 in Calm   1.3 mph 93 % 0 in
Le Gheer Warneton
Courtoisie de Weather Underground - 2.25 mb

Mise a jour : 18/12/2017 21:27:11
Généré par Cumulus 1.9.4 (1099)